This is the latest recevied weather packets stored in our database for station/object EB5AGF-13. If no packets are shown the sender has not sent any weather packets the latest 1 day(s).
| Time | Temp. | Humidity | Pressure | Rain* | Wind** | Luminosity | Snow |
|---|---|---|---|---|---|---|---|
| 1778000073 | 21.11° C | 70% | 1006.8 hPa | 0 mm | 2.68 m/s, 202° | 165 W/m² | - |
| 1777999772 | 21.11° C | 71% | 1006.9 hPa | 0 mm | 1.34 m/s, 47° | 179 W/m² | - |
| 1777999471 | 21.11° C | 70% | 1006.8 hPa | 0 mm | 2.24 m/s, 225° | 158 W/m² | - |
| 1777999171 | 21.11° C | 70% | 1006.8 hPa | 0 mm | 0.89 m/s, 295° | 175 W/m² | - |
| 1777998872 | 21.11° C | 70% | 1007.1 hPa | 0 mm | 3.13 m/s, 229° | 192 W/m² | - |
| 1777998567 | 21.11° C | 70% | 1007.1 hPa | 0 mm | 2.68 m/s, 226° | 176 W/m² | - |
| 1777998265 | 21.11° C | 71% | 1007 hPa | 0 mm | 0.89 m/s, 263° | 202 W/m² | - |
| 1777997960 | 21.11° C | 70% | 1007.1 hPa | 0 mm | 2.24 m/s, 210° | 224 W/m² | - |
| 1777997655 | 21.67° C | 68% | 1007.1 hPa | 0 mm | 3.58 m/s, 230° | 232 W/m² | - |
| 1777997352 | 21.67° C | 68% | 1007.1 hPa | 0 mm | 0.89 m/s, 236° | 246 W/m² | - |
| 1777997047 | 21.11° C | 70% | 1006.9 hPa | 0 mm | 0.45 m/s, 76° | 250 W/m² | - |
| 1777996743 | 21.67° C | 70% | 1007 hPa | 0 mm | 3.13 m/s, 188° | 264 W/m² | - |
| 1777996440 | 21.67° C | 67% | 1007 hPa | 0 mm | 1.79 m/s, 140° | 276 W/m² | - |
| 1777996135 | 21.67° C | 68% | 1007.1 hPa | 0 mm | 1.79 m/s, 194° | 283 W/m² | - |
| 1777995831 | 21.11° C | 70% | 1007.2 hPa | 0 mm | 3.13 m/s, 199° | 293 W/m² | - |
| 1777995527 | 21.67° C | 70% | 1007 hPa | 0 mm | 4.92 m/s, 158° | 307 W/m² | - |
| 1777995212 | 21.11° C | 70% | 1007.1 hPa | 0 mm | 2.68 m/s, 233° | 323 W/m² | - |
| 1777994911 | 21.11° C | 70% | 1007 hPa | 0 mm | 3.58 m/s, 208° | 321 W/m² | - |
| 1777994612 | 21.11° C | 71% | 1007.1 hPa | 0 mm | 1.34 m/s, 333° | 336 W/m² | - |
| 1777994312 | 21.11° C | 69% | 1007.1 hPa | 0 mm | 4.02 m/s, 213° | 365 W/m² | - |
| 1777994011 | 21.67° C | 70% | 1007.4 hPa | 0 mm | 2.68 m/s, 184° | 367 W/m² | - |
| 1777993711 | 21.67° C | 68% | 1007.2 hPa | 0 mm | 2.24 m/s, 258° | 359 W/m² | - |
| 1777993411 | 21.11° C | 70% | 1007.1 hPa | 0 mm | 3.13 m/s, 199° | 343 W/m² | - |
| 1777993111 | 21.67° C | 67% | 1007.3 hPa | 0 mm | 4.47 m/s, 210° | 407 W/m² | - |
| 1777992811 | 21.67° C | 69% | 1007.4 hPa | 0 mm | 3.58 m/s, 203° | 422 W/m² | - |
* Rain latest hour (hover to see other rain measurements)
** Current wind speed in m/s (hover to see current wind gust speed)